Location: Betpouey
(42.8833°N, 0.0333°E)
Time: 22:28:57
(UTC+00:00)

USA 215 - Pass Details

Date: 01 December 2020
Orbit: 1098 x 1110 km, 123.0° (Epoch: 14 January)

Event Time Altitude Azimuth Distance (km) Brightness Sun altitude
Exits shadow 18:46:42 46° 50° (NE) 1,454 3.5 -25.0°
Maximum altitude 18:48:55 89° 134° (SE) 1,114 3.2 -25.4°
Drops below altitude 10° 18:55:30 10° 230° (SW) 2,967 6.2 -26.6°
Sets 18:57:59 0° 231° (SW) 3,923 7.0 -27.1°
